Regional Weather Roundup
Issued by NWS Green Bay, WI

Home | Current Version | Previous Version | Graphics & Text | Print | Product List | Glossary Off
Versions: 1 2 3 4 5 6 7 8 9 10 11 12 13 14 15 16 17 18 19 20 21 22 23 24 25 26 27 28 29 30 31 32 33 34 35 36 37 38 39 40 41 42 43 44 45 46 47 48 49 50

000
ASUS43 KGRB 202059
RWRGRB

NORTH-CENTRAL AND NORTHEAST WISCONSIN REGIONAL WEATHER ROUNDUP
NATIONAL WEATHER SERVICE GREEN BAY WI
400 PM CDT MON OCT 20 2014

WIZ005-009-010>012-018-019-202200-
NORTH CENTRAL WISCONSIN

CITY           SKY/WX    TMP DP  RH WIND       PRES   REMARKS
IRONWOOD       CLOUDY    48  43  81 N10       29.96R
MANITOWISH WTR NOT AVBL
ARBOR VITAE    NOT AVBL
EAGLE RIVER    NOT AVBL
LAND O LAKES   NOT AVBL
RHINELANDER    CLOUDY    45  41  86 VRB5      29.95R
PHILLIPS       NOT AVBL
ANTIGO         NOT AVBL
TOMAHAWK       NOT AVBL
MERRILL        NOT AVBL
$$

WIZ013-073-202200-
NORTHEAST WISCONSIN

CITY           SKY/WX    TMP DP  RH WIND       PRES   REMARKS
IRON MOUNTAIN  CLOUDY    48  41  76 N12G21    29.91R
MARINETTE      CLOUDY    52  43  71 N7        29.89S
$$

WIZ017-030-035>037-045-202200-
CENTRAL WISCONSIN

CITY           SKY/WX    TMP DP  RH WIND       PRES   REMARKS
MEDFORD        NOT AVBL
WAUSAU         CLOUDY    50  40  68 NW10      29.93R
MOSINEE        CLOUDY    48  43  81 NW12      29.96R
MARSHFIELD     CLOUDY    53  40  61 N8        29.95R
WISC RAPIDS    CLOUDY    55  39  54 N15       29.96R
STEVENS POINT  NOT AVBL
WAUPACA        NOT AVBL
SHAWANO        NOT AVBL
CLINTONVILLE   NOT AVBL
$$

WIZ038-039-048-051-202200-
FOX VALLEY

CITY           SKY/WX    TMP DP  RH WIND       PRES   REMARKS
NWS GREEN BAY  CLOUDY    54  41  61 N9        29.91R
APPLETON       CLOUDY    52  41  66 NW13      29.92R
OSHKOSH        CLOUDY    53  44  71 NW14      29.92R
FOND DU LAC    CLOUDY    53  43  68 NW13      29.92R
$$

WIZ022-050-052-202200-
EAST CENTRAL WISCONSIN

CITY           SKY/WX    TMP DP  RH WIND       PRES   REMARKS
STURGEON BAY   CLOUDY    52  43  71 NW14      29.90R
MANITOWOC      NOT AVBL
SHEBOYGAN      CLOUDY    53  43  68 NW8       29.90R
$$

LMZ563-521-522-541>543-202200-
LAKESHORE

STATION/POSITION TIME  TEMP    WIND        PRES    VSBY  WAVE
                       AIR SEA DIR/SP/G                  HT/PER
                 (UTC) (F)     (DEG/KT/KT) (MB)    (MI)  (FT/S)
SHEBOYGAN LKSHOR 2000   53 51  330/ 12/ 14 1012.4R
KEWAUNEE LKSHORE 2000   52     330/  5/ 10 1011.2R
NORTHPORT PIER   2000   50     320/ 17/ 20 1011.2S
N MID LAKE BUOY  2000   49 51  340/ 17/ 21 1010.8R         3/ 4
CHAMBERS ISLAND  2000   51     310/ 12/ 16 1011.9R
MENOMINEE LKSHOR 2000   51     320/  7/ 10 1012.8R
$$


USA.gov is the U.S. government's official web portal to all federal, state and local government web resources and services.